Regional Weather Roundup
Issued by NWS

Home | Current Version | Previous Version | Graphics & Text | Print | Product List | Glossary On
Versions: 1 2 3 4 5 6 7 8 9 10 11 12 13 14 15 16 17 18 19 20 21 22 23 24 25 26 27 28 29 30 31 32 33 34 35 36 37 38 39 40 41 42 43 44 45 46 47 48 49 50
000
ASUS43 KTOP 040859
RWRKS

WEATHER ROUNDUP FOR KANSAS
NATIONAL WEATHER SERVICE GOODLAND KS
400 AM CDT TUE AUG 04 2015

NOTE:  "FAIR" INDICATES FEW OR NO CLOUDS BELOW 12,000 FEET WITH NO
SIGNIFICANT WEATHER AND/OR OBSTRUCTIONS TO VISIBILITY.

KSZ001>006-013>018-027>032-041>047-041000-
NORTHWEST KANSAS

CITY           SKY/WX    TMP DP  RH WIND       PRES   REMARKS
GOODLAND       CLOUDY    65  59  81 SE3       29.97F
HAYS           MOCLDY    73  61  64 S3        29.93F
HILL CITY      PTCLDY    72  64  76 CALM      29.92F
RUSSELL        MOCLDY    74  67  78 S9        29.91S
$$

KSZ061>065-074>080-084>089-041000-
SOUTHWEST KANSAS

CITY           SKY/WX    TMP DP  RH WIND       PRES   REMARKS
DODGE CITY     CLOUDY    72  66  81 S9        29.96F
ELKHART          N/A     69  60  73 SE5         N/A
GARDEN CITY    CLOUDY    71  68  90 S8        29.97S
GREAT BEND     MOCLDY    73  66  78 S6        29.93F
LIBERAL        CLOUDY    70  63  78 W10       30.01R
PRATT          CLOUDY    73  68  83 S7        29.96S
$$

KSZ066>073-081>083-090>101-041000-
SOUTHEAST KANSAS

CITY           SKY/WX    TMP DP  RH WIND       PRES   REMARKS
CHANUTE        PTCLDY    69  67  93 S5        29.94S
COFFEYVILLE    MOCLDY    69  67  93 CALM      29.92F
HUTCHINSON     CLOUDY    75  67  76 S5        29.94S
NEWTON         CLOUDY    73  63  68 S9        29.96S
PARSONS        MOCLDY    68  67  96 CALM      29.94S
WICHITA INTL   CLOUDY    75  67  76 S6        29.93R
WICHITA JABRA  CLOUDY    75  67  76 S8        29.93S
$$

KSZ007>012-019>026-033>040-048>060-102>105-041000-
NORTHEAST KANSAS

CITY           SKY/WX    TMP DP  RH WIND       PRES   REMARKS
CONCORDIA      FOG       72  71  97 E3        29.90F VSB 1/2
EMPORIA        MOCLDY    70  67  90 S7        29.92S
LAWRENCE       PTCLDY    72  69  90 CALM      29.92S
MANHATTAN      PTCLDY    72  71  97 CALM      29.90F
OLATHE IND     PTCLDY    73  70  90 E5        29.94S
OLATHE EXE     PTCLDY    72  69  90 CALM      29.93S
SALINA         MOCLDY    76  68  76 S10       29.91S
TOPEKA BILLARD CLEAR     74  71  91 CALM      29.91F
TOPEKA FORBES  PTCLDY    73  69  87 CALM      29.92S
$$



USA.gov is the U.S. government's official web portal to all federal, state and local government web resources and services.